• In France
  • List of Countries
  • For 7 days
  • Water Temperature
  • Satellite Maps
  • Weather Map
  • Weather Widgets
  • user-avatar
    Login

    Hourly Weather Armagh

    Today, 15 July, Sunday

    Time Temperature Precipitation Wind Pressure Humidity
    00:00 +18°C° 0 mm 3 mps 755 mmHg 93%
    01:00 +17°C° 0.2 mm 3 mps 755 mmHg 94%
    02:00 +17°C° 0.2 mm 3 mps 755 mmHg 95%
    03:00 +17°C° 0.2 mm 3 mps 755 mmHg 96%
    04:00 +17°C° 0.5 mm 3 mps 755 mmHg 97%
    05:00 +17°C° 0.5 mm 3 mps 754 mmHg 97%
    06:00 +17°C° 0 mm 3 mps 754 mmHg 97%
    07:00 +17°C° 0.9 mm 3 mps 755 mmHg 97%
    08:00 +17°C° 0.9 mm 3 mps 755 mmHg 97%
    09:00 +17°C° 0.9 mm 3 mps 755 mmHg 97%
    10:00 +17°C° 0.9 mm 3 mps 755 mmHg 97%
    11:00 +17°C° 0.9 mm 3 mps 755 mmHg 97%
    12:00 +17°C° 0 mm 3 mps 754 mmHg 97%
    13:00 +18°C° 0.7 mm 3 mps 754 mmHg 97%
    14:00 +18°C° 0.7 mm 3 mps 754 mmHg 97%
    15:00 +18°C° 0.7 mm 3 mps 754 mmHg 96%
    16:00 +18°C° 0.4 mm 3 mps 754 mmHg 96%
    17:00 +18°C° 0.4 mm 3 mps 754 mmHg 96%
    18:00 +19°C° 0.4 mm 3 mps 754 mmHg 96%
    19:00 +18°C° 0.6 mm 3 mps 754 mmHg 96%
    20:00 +18°C° 0.6 mm 3 mps 754 mmHg 97%
    21:00 +17°C° 0.6 mm 3 mps 754 mmHg 97%
    22:00 +17°C° 0.3 mm 3 mps 754 mmHg 97%
    23:00 +16°C° 0.3 mm 3 mps 754 mmHg 97%

    Tomorrow, 16 July, Monday

    Time Temperature Precipitation Wind Pressure Humidity
    00:00 +16°C° 0.3 mm 2 mps 754 mmHg 97%
    01:00 +15°C° 0 mm 2 mps 754 mmHg 97%
    02:00 +13°C° 0 mm 2 mps 754 mmHg 97%
    03:00 +12°C° 0 mm 2 mps 754 mmHg 97%
    04:00 +12°C° 0 mm 2 mps 754 mmHg 97%
    05:00 +12°C° 0 mm 2 mps 754 mmHg 96%
    06:00 +13°C° 0 mm 2 mps 754 mmHg 96%
    07:00 +14°C° 0 mm 2 mps 754 mmHg 90%
    08:00 +15°C° 0 mm 2 mps 754 mmHg 83%
    09:00 +17°C° 0 mm 3 mps 754 mmHg 77%
    10:00 +18°C° 0.1 mm 3 mps 754 mmHg 73%
    11:00 +18°C° 0.1 mm 3 mps 754 mmHg 69%
    12:00 +19°C° 0.1 mm 3 mps 754 mmHg 65%
    13:00 +19°C° 0.1 mm 3 mps 754 mmHg 67%
    14:00 +18°C° 0.1 mm 3 mps 755 mmHg 70%
    15:00 +18°C° 0.1 mm 3 mps 755 mmHg 72%
    16:00 +17°C° 0.1 mm 3 mps 755 mmHg 74%
    17:00 +17°C° 0.1 mm 3 mps 755 mmHg 77%
    18:00 +17°C° 0.1 mm 2 mps 755 mmHg 79%
    19:00 +16°C° 0 mm 2 mps 755 mmHg 82%
    20:00 +15°C° 0 mm 2 mps 755 mmHg 86%
    21:00 +14°C° 0 mm 2 mps 755 mmHg 89%
    22:00 +13°C° 0 mm 2 mps 755 mmHg 91%
    23:00 +12°C° 0 mm 2 mps 755 mmHg 93%

    Day after tomorrow, 17 July, Tuesday

    Time Temperature Precipitation Wind Pressure Humidity
    00:00 +10°C° 0 mm 2 mps 756 mmHg 95%
    01:00 +10°C° 0 mm 2 mps 755 mmHg 96%
    02:00 +9°C° 0 mm 2 mps 755 mmHg 96%
    03:00 +9°C° 0 mm 2 mps 755 mmHg 97%
    04:00 +9°C° 0 mm 2 mps 755 mmHg 96%
    05:00 +10°C° 0 mm 2 mps 755 mmHg 95%
    06:00 +10°C° 0 mm 2 mps 755 mmHg 94%
    07:00 +13°C° 0 mm 2 mps 755 mmHg 86%
    08:00 +15°C° 0 mm 2 mps 755 mmHg 79%
    09:00 +16°C° 0 mm 2 mps 756 mmHg 72%
    10:00 +17°C° 0.1 mm 3 mps 756 mmHg 72%
    11:00 +17°C° 0.1 mm 3 mps 755 mmHg 73%
    12:00 +18°C° 0.1 mm 3 mps 755 mmHg 74%
    13:00 +18°C° 0.2 mm 3 mps 756 mmHg 74%
    14:00 +18°C° 0.2 mm 3 mps 756 mmHg 74%
    15:00 +19°C° 0.2 mm 3 mps 756 mmHg 74%
    16:00 +18°C° 0.2 mm 3 mps 756 mmHg 76%
    17:00 +18°C° 0.2 mm 3 mps 756 mmHg 79%
    18:00 +18°C° 0.2 mm 2 mps 756 mmHg 81%
    19:00 +16°C° 0.1 mm 2 mps 756 mmHg 85%
    20:00 +15°C° 0.1 mm 2 mps 756 mmHg 89%
    21:00 +14°C° 0.1 mm 1 mps 756 mmHg 93%
    22:00 +13°C° 0 mm 1 mps 756 mmHg 93%
    23:00 +12°C° 0 mm 1 mps 756 mmHg 94%

    18 July, Wednesday

    Time Temperature Precipitation Wind Pressure Humidity
    00:00 +12°C° 0 mm 1 mps 757 mmHg 95%
    01:00 +11°C° 0 mm 1 mps 757 mmHg 95%
    02:00 +11°C° 0 mm 1 mps 757 mmHg 95%
    03:00 +11°C° 0 mm 1 mps 757 mmHg 95%
    04:00 +11°C° 0 mm 1 mps 757 mmHg 94%
    05:00 +12°C° 0 mm 1 mps 757 mmHg 93%
    06:00 +12°C° 0 mm 1 mps 757 mmHg 92%
    07:00 +13°C° 0 mm 1 mps 757 mmHg 87%
    08:00 +14°C° 0 mm 1 mps 758 mmHg 82%
    09:00 +15°C° 0 mm 1 mps 758 mmHg 77%
    10:00 +16°C° 0 mm 1 mps 758 mmHg 73%
    11:00 +18°C° 0 mm 1 mps 758 mmHg 68%
    12:00 +18°C° 0 mm 1 mps 759 mmHg 64%
    13:00 +18°C° 0 mm 1 mps 759 mmHg 65%
    14:00 +18°C° 0 mm 1 mps 759 mmHg 65%
    15:00 +18°C° 0 mm 1 mps 759 mmHg 66%
    16:00 +18°C° 0 mm 1 mps 759 mmHg 69%
    17:00 +18°C° 0 mm 1 mps 759 mmHg 71%
    18:00 +16°C° 0 mm 1 mps 759 mmHg 74%
    19:00 +15°C° 0 mm 1 mps 759 mmHg 79%
    20:00 +14°C° 0 mm 1 mps 760 mmHg 83%
    21:00 +13°C° 0 mm 1 mps 760 mmHg 88%
    22:00 +12°C° 0 mm 1 mps 760 mmHg 89%
    23:00 +12°C° 0 mm 1 mps 760 mmHg 91%

    19 July, Thursday

    Time Temperature Precipitation Wind Pressure Humidity
    00:00 +11°C° 0 mm 1 mps 760 mmHg 92%
    01:00 +11°C° 0 mm 1 mps 760 mmHg 93%
    02:00 +10°C° 0 mm 1 mps 760 mmHg 94%
    03:00 +10°C° 0 mm 1 mps 760 mmHg 94%
    04:00 +10°C° 0 mm 1 mps 760 mmHg 93%
    05:00 +11°C° 0 mm 1 mps 760 mmHg 92%
    06:00 +11°C° 0 mm 1 mps 760 mmHg 92%
    07:00 +13°C° 0 mm 1 mps 760 mmHg 84%
    08:00 +15°C° 0 mm 1 mps 760 mmHg 76%
    09:00 +16°C° 0 mm 2 mps 760 mmHg 69%
    10:00 +16°C° 0 mm 2 mps 760 mmHg 68%
    11:00 +17°C° 0 mm 2 mps 760 mmHg 66%
    12:00 +17°C° 0 mm 2 mps 760 mmHg 65%
    13:00 +18°C° 0 mm 2 mps 760 mmHg 64%
    14:00 +18°C° 0 mm 2 mps 759 mmHg 63%
    15:00 +18°C° 0 mm 2 mps 759 mmHg 62%
    16:00 +18°C° 0 mm 2 mps 759 mmHg 65%
    17:00 +18°C° 0 mm 2 mps 759 mmHg 68%
    18:00 +18°C° 0 mm 2 mps 759 mmHg 71%
    19:00 +16°C° 0.2 mm 2 mps 759 mmHg 78%
    20:00 +15°C° 0.2 mm 2 mps 758 mmHg 85%
    21:00 +14°C° 0.2 mm 2 mps 758 mmHg 92%
    22:00 +14°C° 0.3 mm 2 mps 758 mmHg 94%
    23:00 +14°C° 0.3 mm 2 mps 758 mmHg 95%

    20 July, Friday

    Time Temperature Precipitation Wind Pressure Humidity
    00:00 +12°C° 0.3 mm 3 mps 757 mmHg 97%
    01:00 +12°C° 0.2 mm 3 mps 757 mmHg 97%
    02:00 +13°C° 0.2 mm 3 mps 757 mmHg 97%
    03:00 +13°C° 0.2 mm 3 mps 756 mmHg 98%
    04:00 +13°C° 0.5 mm 3 mps 756 mmHg 98%
    05:00 +14°C° 0.5 mm 2 mps 756 mmHg 98%
    06:00 +14°C° 0.5 mm 2 mps 755 mmHg 98%
    07:00 +14°C° 0.5 mm 2 mps 755 mmHg 98%
    08:00 +15°C° 0.5 mm 2 mps 755 mmHg 97%
    09:00 +15°C° 0.5 mm 2 mps 755 mmHg 97%
    10:00 +16°C° 0.2 mm 2 mps 755 mmHg 95%
    11:00 +16°C° 0.2 mm 2 mps 755 mmHg 93%
    12:00 +17°C° 0.2 mm 2 mps 755 mmHg 91%
    13:00 +18°C° 0.5 mm 2 mps 755 mmHg 90%
    14:00 +18°C° 0.5 mm 2 mps 755 mmHg 89%
    15:00 +18°C° 0.5 mm 2 mps 755 mmHg 88%
    16:00 +18°C° 0.7 mm 2 mps 755 mmHg 88%
    17:00 +18°C° 0.7 mm 2 mps 755 mmHg 87%
    18:00 +18°C° 0.7 mm 2 mps 755 mmHg 87%
    19:00 +17°C° 0.2 mm 2 mps 755 mmHg 90%
    20:00 +16°C° 0.2 mm 2 mps 755 mmHg 92%
    21:00 +15°C° 0.2 mm 2 mps 756 mmHg 95%
    22:00 +14°C° 0 mm 2 mps 756 mmHg 96%
    23:00 +14°C° 0 mm 1 mps 756 mmHg 97%
    Show more